• In Netherlands
  • List of Countries
  • For 7 days
  • Water Temperature
  • Satellite Maps
  • Weather Map
  • Weather Widgets
  • user-avatar
    Login

    Hourly Weather Shaki

    Today, 24 May, Wednesday

    Time Temperature Precipitation Wind Pressure Humidity
    00:00 +16°C° 0 mm 1 mps 733 mmHg 55%
    01:00 +15°C° 0 mm 1 mps 733 mmHg 55%
    02:00 +15°C° 0 mm 1 mps 733 mmHg 54%
    03:00 +15°C° 0 mm 1 mps 733 mmHg 54%
    04:00 +16°C° 0 mm 1 mps 733 mmHg 53%
    05:00 +18°C° 0 mm 1 mps 733 mmHg 53%
    06:00 +20°C° 0 mm 1 mps 733 mmHg 52%
    07:00 +20°C° 0.1 mm 1 mps 733 mmHg 51%
    08:00 +21°C° 0.1 mm 1 mps 733 mmHg 50%
    09:00 +21°C° 0.1 mm 1 mps 733 mmHg 49%
    10:00 +22°C° 0.3 mm 1 mps 733 mmHg 48%
    11:00 +23°C° 0.3 mm 1 mps 733 mmHg 47%
    12:00 +24°C° 0.3 mm 1 mps 733 mmHg 46%
    13:00 +25°C° 0.4 mm 1 mps 733 mmHg 45%
    14:00 +25°C° 0.4 mm 1 mps 733 mmHg 45%
    15:00 +25°C° 0.4 mm 1 mps 733 mmHg 44%
    16:00 +24°C° 0.2 mm 2 mps 733 mmHg 47%
    17:00 +24°C° 0.2 mm 2 mps 733 mmHg 50%
    18:00 +22°C° 0.2 mm 3 mps 733 mmHg 52%
    19:00 +20°C° 0 mm 3 mps 734 mmHg 57%
    20:00 +18°C° 0 mm 3 mps 734 mmHg 62%
    21:00 +14°C° 0 mm 3 mps 734 mmHg 67%
    22:00 +14°C° 0 mm 3 mps 735 mmHg 68%
    23:00 +15°C° 0 mm 2 mps 735 mmHg 69%

    Tomorrow, 25 May, Thursday

    Time Temperature Precipitation Wind Pressure Humidity
    00:00 +14°C° 0 mm 2 mps 735 mmHg 69%
    01:00 +14°C° 0.1 mm 2 mps 735 mmHg 69%
    02:00 +14°C° 0.1 mm 2 mps 735 mmHg 69%
    03:00 +13°C° 0.1 mm 2 mps 735 mmHg 69%
    04:00 +14°C° 0 mm 2 mps 735 mmHg 64%
    05:00 +16°C° 0 mm 2 mps 735 mmHg 59%
    06:00 +17°C° 0 mm 2 mps 735 mmHg 54%
    07:00 +19°C° 0 mm 2 mps 736 mmHg 47%
    08:00 +20°C° 0 mm 2 mps 736 mmHg 41%
    09:00 +22°C° 0 mm 3 mps 736 mmHg 34%
    10:00 +24°C° 0 mm 3 mps 735 mmHg 31%
    11:00 +25°C° 0 mm 2 mps 735 mmHg 28%
    12:00 +26°C° 0 mm 2 mps 735 mmHg 25%
    13:00 +27°C° 0 mm 2 mps 735 mmHg 25%
    14:00 +27°C° 0 mm 3 mps 735 mmHg 24%
    15:00 +27°C° 0 mm 3 mps 734 mmHg 23%
    16:00 +26°C° 0 mm 2 mps 734 mmHg 27%
    17:00 +25°C° 0 mm 2 mps 734 mmHg 31%
    18:00 +24°C° 0 mm 2 mps 734 mmHg 35%
    19:00 +21°C° 0 mm 2 mps 735 mmHg 36%
    20:00 +18°C° 0 mm 2 mps 735 mmHg 38%
    21:00 +16°C° 0 mm 2 mps 736 mmHg 39%
    22:00 +15°C° 0 mm 2 mps 736 mmHg 44%
    23:00 +15°C° 0 mm 2 mps 736 mmHg 49%

    Day after tomorrow, 26 May, Friday

    Time Temperature Precipitation Wind Pressure Humidity
    00:00 +15°C° 0 mm 2 mps 736 mmHg 54%
    01:00 +14°C° 0 mm 1 mps 735 mmHg 57%
    02:00 +14°C° 0 mm 1 mps 735 mmHg 60%
    03:00 +14°C° 0 mm 1 mps 735 mmHg 64%
    04:00 +15°C° 0 mm 1 mps 735 mmHg 60%
    05:00 +16°C° 0 mm 1 mps 735 mmHg 56%
    06:00 +19°C° 0 mm 1 mps 736 mmHg 53%
    07:00 +21°C° 0 mm 1 mps 736 mmHg 46%
    08:00 +23°C° 0 mm 2 mps 735 mmHg 39%
    09:00 +25°C° 0 mm 2 mps 735 mmHg 33%
    10:00 +26°C° 0 mm 2 mps 735 mmHg 30%
    11:00 +27°C° 0 mm 2 mps 735 mmHg 27%
    12:00 +28°C° 0 mm 2 mps 734 mmHg 25%
    13:00 +28°C° 0 mm 2 mps 734 mmHg 24%
    14:00 +29°C° 0 mm 2 mps 734 mmHg 23%
    15:00 +29°C° 0 mm 2 mps 733 mmHg 22%
    16:00 +28°C° 0 mm 1 mps 733 mmHg 27%
    17:00 +27°C° 0 mm 1 mps 734 mmHg 32%
    18:00 +26°C° 0 mm 1 mps 734 mmHg 37%
    19:00 +24°C° 0 mm 1 mps 734 mmHg 36%
    20:00 +20°C° 0 mm 2 mps 734 mmHg 35%
    21:00 +18°C° 0 mm 2 mps 734 mmHg 34%
    22:00 +18°C° 0 mm 2 mps 734 mmHg 38%
    23:00 +17°C° 0 mm 2 mps 734 mmHg 42%

    27 May, Saturday

    Time Temperature Precipitation Wind Pressure Humidity
    00:00 +17°C° 0 mm 2 mps 734 mmHg 45%
    01:00 +16°C° 0.1 mm 2 mps 734 mmHg 49%
    02:00 +16°C° 0.1 mm 1 mps 733 mmHg 53%
    03:00 +16°C° 0.1 mm 1 mps 733 mmHg 57%
    04:00 +18°C° 0 mm 1 mps 733 mmHg 55%
    05:00 +19°C° 0 mm 1 mps 733 mmHg 54%
    06:00 +20°C° 0 mm 1 mps 734 mmHg 52%
    07:00 +22°C° 0 mm 1 mps 733 mmHg 46%
    08:00 +24°C° 0 mm 1 mps 733 mmHg 41%
    09:00 +26°C° 0 mm 2 mps 733 mmHg 35%
    10:00 +27°C° 0 mm 2 mps 733 mmHg 32%
    11:00 +28°C° 0 mm 2 mps 732 mmHg 30%
    12:00 +29°C° 0 mm 2 mps 732 mmHg 27%
    13:00 +30°C° 0.1 mm 2 mps 731 mmHg 27%
    14:00 +30°C° 0.1 mm 1 mps 731 mmHg 27%
    15:00 +30°C° 0.1 mm 1 mps 730 mmHg 27%
    16:00 +29°C° 0.3 mm 1 mps 730 mmHg 33%
    17:00 +27°C° 0.3 mm 1 mps 730 mmHg 39%
    18:00 +26°C° 0.3 mm 1 mps 730 mmHg 45%
    19:00 +24°C° 0.4 mm 1 mps 731 mmHg 49%
    20:00 +22°C° 0.4 mm 1 mps 731 mmHg 54%
    21:00 +20°C° 0.4 mm 1 mps 731 mmHg 58%
    22:00 +19°C° 0.1 mm 1 mps 731 mmHg 59%
    23:00 +18°C° 0.1 mm 1 mps 731 mmHg 60%

    28 May, Sunday

    Time Temperature Precipitation Wind Pressure Humidity
    00:00 +18°C° 0.1 mm 1 mps 731 mmHg 61%
    01:00 +18°C° 0 mm 1 mps 731 mmHg 58%
    02:00 +16°C° 0 mm 1 mps 731 mmHg 56%
    03:00 +16°C° 0 mm 1 mps 731 mmHg 53%
    04:00 +17°C° 0 mm 2 mps 731 mmHg 51%
    05:00 +19°C° 0 mm 2 mps 732 mmHg 49%
    06:00 +20°C° 0 mm 2 mps 732 mmHg 47%
    07:00 +23°C° 0 mm 2 mps 732 mmHg 42%
    08:00 +25°C° 0 mm 2 mps 732 mmHg 36%
    09:00 +27°C° 0 mm 3 mps 732 mmHg 30%
    10:00 +28°C° 0 mm 3 mps 732 mmHg 28%
    11:00 +30°C° 0 mm 3 mps 731 mmHg 26%
    12:00 +31°C° 0 mm 3 mps 731 mmHg 24%
    13:00 +31°C° 0 mm 3 mps 731 mmHg 22%
    14:00 +31°C° 0 mm 3 mps 730 mmHg 21%
    15:00 +33°C° 0 mm 3 mps 730 mmHg 20%
    16:00 +31°C° 0 mm 3 mps 730 mmHg 24%
    17:00 +30°C° 0 mm 2 mps 730 mmHg 29%
    18:00 +28°C° 0 mm 1 mps 730 mmHg 34%
    19:00 +26°C° 0 mm 2 mps 730 mmHg 33%
    20:00 +24°C° 0 mm 2 mps 730 mmHg 33%
    21:00 +20°C° 0 mm 2 mps 731 mmHg 33%
    22:00 +20°C° 0 mm 2 mps 731 mmHg 36%
    23:00 +19°C° 0 mm 2 mps 731 mmHg 38%

    29 May, Monday

    Time Temperature Precipitation Wind Pressure Humidity
    00:00 +19°C° 0 mm 2 mps 731 mmHg 41%
    01:00 +18°C° 0 mm 2 mps 731 mmHg 43%
    02:00 +18°C° 0 mm 2 mps 731 mmHg 45%
    03:00 +18°C° 0 mm 2 mps 731 mmHg 48%
    04:00 +19°C° 0 mm 2 mps 731 mmHg 46%
    05:00 +20°C° 0 mm 3 mps 731 mmHg 44%
    06:00 +20°C° 0 mm 3 mps 732 mmHg 42%
    07:00 +22°C° 0 mm 4 mps 732 mmHg 38%
    08:00 +25°C° 0 mm 5 mps 732 mmHg 34%
    09:00 +27°C° 0 mm 5 mps 732 mmHg 30%
    10:00 +28°C° 0 mm 6 mps 732 mmHg 29%
    11:00 +28°C° 0 mm 6 mps 732 mmHg 28%
    12:00 +29°C° 0 mm 6 mps 732 mmHg 27%
    13:00 +29°C° 0 mm 6 mps 733 mmHg 27%
    14:00 +29°C° 0 mm 6 mps 733 mmHg 26%
    15:00 +29°C° 0 mm 6 mps 733 mmHg 25%
    16:00 +28°C° 0.1 mm 5 mps 734 mmHg 30%
    17:00 +27°C° 0.1 mm 4 mps 735 mmHg 34%
    18:00 +26°C° 0.1 mm 3 mps 736 mmHg 39%
    19:00 +22°C° 0.2 mm 3 mps 736 mmHg 47%
    20:00 +20°C° 0.2 mm 3 mps 737 mmHg 55%
    21:00 +18°C° 0.2 mm 2 mps 738 mmHg 63%
    22:00 +17°C° 0.1 mm 3 mps 738 mmHg 70%
    23:00 +16°C° 0.1 mm 3 mps 739 mmHg 77%
    Show more